Weather in Kuya

Russia / Nenets Autonomous Okrug     67°46′12″N   53°16′02″E
temp.,
°C
wind,
m/s
gust,
m/s
humid.,
%
clouds,
%
prec.,
mm/h
press.,
hPa
HPBL,
m
27 february, sat
sat2700:00−19s7149299 0.0 1011345
03:00−20s6129399 0.0 1011310
06:00−21s61293100 0.0 1011285
09:00−20s71292100 0.0 1011342
12:00−20s7129199 0.0 1011374
15:00−18s61190100 0.0 1011393
18:00−18s61193100 0.0 1010364
21:00−17ssw61095100 0.3 1009384
28 february, sun
sun2800:00−16ssw5995100 0.6 1008359
03:00−15ssw4895100 1.1 1009324
06:00−17ssw489696 0.1 1008159
09:00−18ssw479697 0.1 1008159
12:00−17ssw369588 0.0 1009241
15:00−17s469582 0.0 1010108
18:00−17s459681 0.0 100974
21:00−17s479783 0.1 100990
1 march, mon
mon100:00−13ssw589596 0.1 1008164
03:00−11ssw6119498 0.2 1006279
06:00−11s81393100 0.1 1003312
09:00−11ssw91592100 0.4 999412
12:00−8ssw101693100 0.6 995564
15:00−7ssw91593100 1.3 992617
18:00−6ssw91494100 1.4 989545
21:00−4ssw71196100 3.0 987373
2 march, tue
tue200:00−1wsw3695100 0.3 987213
03:00−1wsw3698100 1.0 988243
06:00−6wsw469697 0.1 988136
09:00−7sw469693 0.2 988150
12:00−5ssw4795100 0.1 988290
15:00−5ssw479599 0.1 988229
18:00−4sse3795100 0.1 988227
21:00−6sse369698 0.2 988113
3 march, wed
wed300:00−7sse239698 0.1 98954
03:00−7se229799 0.6 99024
06:00−8wnw229691 0.3 99037
09:00−8nnw589594 0.7 991288
12:00−8nw589499 0.3 992464
15:00−8wnw489599 0.8 993450
18:00−10w4796100 0.3 993191
21:00−11w3695100 0.4 993168